Weather History for Kimball, NE

Change the Weather History Date:

Tuesday, February 19, 2013

  Actual Average (KSNY) Record (KSNY)
Temperature  
Mean Temperature 26 °F 33 °F  
Max Temperature 42 °F 46 °F 70 °F (1986)
Min Temperature 10 °F 20 °F -11 °F (2006)
Degree Days  
Heating Degree Days 39 32  
Month to date heating degree days 647  
Since 1 July heating degree days 4304  
Cooling Degree Days 0 0  
Month to date cooling degree days 0  
Year to date cooling degree days 0  
Moisture  
Dew Point 16 °F    
Average Humidity 70    
Maximum Humidity 95    
Minimum Humidity 34    
Precipitation  
Precipitation 0.00 in 0.02 in 0.71 in (1953)
Month to date precipitation 0.18  
Year to date precipitation 0.38  
Sea Level Pressure  
Sea Level Pressure 29.97 in    
Wind  
Wind Speed 10 mph (SSE)    
Max Wind Speed 24 mph    
Max Gust Speed 33 mph    
Visibility 10 miles    
Events      
T = Trace of Precipitation, MM = Missing Value Source: NWS Daily Summary

Daily Weather History Graph

Daily Weather History Graph

Search for Another Location

Airport:

Trip Planner

Search our weather history database for the weather conditions in past years. The results will help you decide how hot, cold, wet, or windy it might be!

Date:

Astronomy

Feb. 19, 2013 Rise Set
Actual Time 7:43 AM CST 6:34 PM CST
Civil Twilight 7:15 AM CST 7:02 PM CST
Nautical Twilight 6:43 AM CST 7:34 PM CST
Astronomical Twilight 6:11 AM CST 8:06 PM CST
Moon 1:05 PM CST (2/19) 3:18 AM CST (2/19)
Length of Visible Light 11h 46m
Length of Day
10h 50m
Waxing Gibbous, 67% of the Moon is Illuminated
Feb 19
Waxing Gibbous
Feb 25
Full
Mar 4
Last Quarter
Mar 11
New
Mar 19
First Quarter

Hourly Weather History & Observations

Time (CST) Temp. Windchill Dew Point Humidity Pressure Visibility Wind Dir Wind Speed Gust Speed Precip Events Conditions
12:35 AM 19.2 °F 8.4 °F 17.6 °F 93% 30.02 in 10.0 mi North 9.2 mph - N/A   Clear
12:55 AM 20.5 °F - 19.0 °F 94% 30.04 in 10.0 mi Calm Calm - N/A   Clear
1:15 AM 19.0 °F - 17.2 °F 93% 30.04 in 10.0 mi Calm Calm - N/A   Clear
1:35 AM 15.6 °F - 13.6 °F 92% 30.04 in 10.0 mi Calm Calm - N/A   Clear
1:55 AM 12.2 °F -1.0 °F 9.9 °F 90% 30.06 in 10.0 mi SSW 10.4 mph - N/A   Scattered Clouds
2:15 AM 14.7 °F 5.9 °F 12.2 °F 90% 30.06 in 10.0 mi SW 5.8 mph - N/A   Mostly Cloudy
2:35 AM 14.2 °F - 11.7 °F 90% 30.06 in 10.0 mi Calm Calm - N/A   Scattered Clouds
2:55 AM 17.2 °F 11.9 °F 15.6 °F 93% 30.06 in 10.0 mi SSW 3.5 mph - N/A   Mostly Cloudy
3:15 AM 19.4 °F 14.3 °F 17.4 °F 92% 30.05 in 10.0 mi SSW 3.5 mph - N/A   Overcast
3:35 AM 18.0 °F 9.8 °F 15.4 °F 90% 30.05 in 10.0 mi SW 5.8 mph - N/A   Mostly Cloudy
3:55 AM 14.7 °F 4.8 °F 12.0 °F 89% 30.05 in 10.0 mi SW 6.9 mph - N/A   Scattered Clouds
4:15 AM 15.1 °F 5.2 °F 12.9 °F 91% 30.05 in 10.0 mi SW 6.9 mph - N/A   Mostly Cloudy
4:35 AM 14.9 °F 7.5 °F 12.9 °F 92% 30.04 in 10.0 mi WSW 4.6 mph - N/A   Overcast
4:55 AM 14.5 °F 7.1 °F 12.0 °F 90% 30.03 in 10.0 mi WSW 4.6 mph - N/A   Overcast
5:55 AM 10.8 °F 2.7 °F 8.1 °F 89% 30.02 in 10.0 mi SW 4.6 mph - N/A   Clear
6:15 AM 10.2 °F 2.0 °F 7.3 °F 88% 30.02 in 10.0 mi WSW 4.6 mph - N/A   Clear
6:35 AM 10.4 °F 4.0 °F 7.7 °F 89% 30.02 in 10.0 mi WSW 3.5 mph - N/A   Clear
6:55 AM 10.6 °F 4.3 °F 7.7 °F 88% 30.02 in 10.0 mi SSW 3.5 mph - N/A   Clear
7:15 AM 10.6 °F 4.3 °F 7.7 °F 88% 30.02 in 10.0 mi SW 3.5 mph - N/A   Clear
7:35 AM 11.1 °F 4.9 °F 8.1 °F 87% 30.02 in 10.0 mi SW 3.5 mph - N/A   Clear
7:55 AM 12.2 °F 4.3 °F 9.5 °F 89% 30.02 in 10.0 mi SSW 4.6 mph - N/A   Clear
8:15 AM 14.2 °F 5.3 °F 12.0 °F 91% 30.03 in 10.0 mi South 5.8 mph - N/A   Clear
8:35 AM 15.4 °F 4.6 °F 13.1 °F 90% 30.03 in 10.0 mi South 8.1 mph - N/A   Clear
8:55 AM 17.4 °F 9.1 °F 15.4 °F 92% 30.03 in 10.0 mi South 5.8 mph - N/A   Clear
9:15 AM 20.5 °F 11.7 °F 18.9 °F 93% 30.04 in 10.0 mi SSE 6.9 mph - N/A   Clear
9:35 AM 22.3 °F 11.5 °F 21.0 °F 95% 30.04 in 5.0 mi SSE 10.4 mph - N/A   Clear
9:55 AM 24.4 °F 12.4 °F 22.8 °F 94% 30.04 in 10.0 mi SSE 13.8 mph - N/A   Scattered Clouds
10:15 AM 25.2 °F 12.0 °F 23.4 °F 93% 30.03 in 10.0 mi SSE 17.3 mph - N/A   Scattered Clouds
10:35 AM 26.2 °F 13.8 °F 23.7 °F 90% 30.03 in 10.0 mi SSE 16.1 mph - N/A   Scattered Clouds
11:15 AM 29.8 °F 17.7 °F 22.1 °F 73% 30.02 in 10.0 mi SSE 18.4 mph - N/A   Clear
11:35 AM 32.5 °F 20.8 °F 20.7 °F 62% 30.01 in 10.0 mi SSE 19.6 mph 25.3 mph N/A   Clear
11:55 AM 33.6 °F 22.6 °F 18.9 °F 55% 30.00 in 10.0 mi SSE 18.4 mph 27.6 mph N/A   Clear
12:15 PM 34.5 °F 23.8 °F 18.5 °F 52% 29.99 in 10.0 mi SSE 18.4 mph 26.5 mph N/A   Clear
12:35 PM 35.8 °F 24.5 °F 17.6 °F 48% 29.98 in 10.0 mi SSE 21.9 mph 29.9 mph N/A   Clear
12:55 PM 36.0 °F 25.3 °F 18.5 °F 49% 29.97 in 10.0 mi SSE 19.6 mph 26.5 mph N/A   Clear
1:15 PM 36.3 °F 26.4 °F 19.4 °F 50% 29.96 in 10.0 mi South 17.3 mph 25.3 mph N/A   Clear
1:35 PM 36.0 °F 24.4 °F 18.9 °F 50% 29.95 in 10.0 mi South 23.0 mph 26.5 mph N/A   Clear
1:55 PM 36.3 °F 25.2 °F 18.5 °F 48% 29.93 in 10.0 mi SSE 21.9 mph 26.5 mph N/A   Clear
2:15 PM 37.0 °F 27.0 °F 18.9 °F 48% 29.92 in 10.0 mi SE 18.4 mph 23.0 mph N/A   Clear
2:35 PM 40.5 °F 30.7 °F 18.7 °F 42% 29.91 in 10.0 mi SE 21.9 mph 26.5 mph N/A   Clear
2:55 PM 42.4 °F 33.5 °F 17.8 °F 37% 29.90 in 10.0 mi SSE 20.7 mph 29.9 mph N/A   Clear
3:15 PM 42.4 °F 33.3 °F 17.4 °F 37% 29.89 in 10.0 mi SSE 21.9 mph 31.1 mph N/A   Clear
3:35 PM 42.1 °F 32.3 °F 16.0 °F 35% 29.89 in 10.0 mi SSE 24.2 mph - N/A   Clear
3:55 PM 41.7 °F 32.3 °F 16.7 °F 36% 29.89 in 10.0 mi SSE 21.9 mph 29.9 mph N/A   Clear
4:15 PM 41.9 °F 32.6 °F 16.9 °F 36% 29.89 in 10.0 mi SSE 21.9 mph 27.6 mph N/A   Clear
4:35 PM 40.8 °F 30.7 °F 17.4 °F 39% 29.88 in 10.0 mi SE 24.2 mph - N/A   Clear
4:55 PM 41.9 °F 32.1 °F 14.9 °F 34% 29.87 in 10.0 mi SSE 24.2 mph 33.4 mph N/A   Clear
5:15 PM 41.2 °F 31.4 °F 14.4 °F 34% 29.87 in 10.0 mi SSE 23.0 mph 29.9 mph N/A   Clear
6:35 PM 33.8 °F 22.5 °F 15.8 °F 48% 29.87 in 10.0 mi SE 19.6 mph 24.2 mph N/A   Clear
6:55 PM 32.7 °F 21.8 °F 15.8 °F 50% 29.87 in 10.0 mi SE 17.3 mph - N/A   Clear
7:15 PM 32.0 °F 20.5 °F 16.2 °F 52% 29.87 in 10.0 mi SE 18.4 mph - N/A   Clear
7:35 PM 31.5 °F 19.4 °F 16.3 °F 54% 29.88 in 10.0 mi SE 19.6 mph - N/A   Clear
7:55 PM 30.7 °F 19.6 °F 16.2 °F 55% 29.88 in 10.0 mi SE 16.1 mph - N/A   Clear
8:15 PM 30.4 °F 19.5 °F 16.2 °F 56% 29.88 in 10.0 mi SE 15.0 mph 23.0 mph N/A   Clear
8:35 PM 29.5 °F 18.4 °F 16.2 °F 58% 29.88 in 10.0 mi SE 15.0 mph - N/A   Clear
8:55 PM 28.8 °F 17.0 °F 15.8 °F 58% 29.88 in 10.0 mi SE 16.1 mph 21.9 mph N/A   Clear
9:15 PM 28.2 °F 15.9 °F 16.2 °F 61% 29.88 in 10.0 mi SE 17.3 mph - N/A   Clear
9:55 PM 27.5 °F 14.2 °F 15.8 °F 61% 29.88 in 10.0 mi SE 19.6 mph 24.2 mph N/A   Clear
10:15 PM 27.0 °F 13.5 °F 15.8 °F 63% 29.87 in 10.0 mi SE 19.6 mph - N/A   Clear
10:35 PM 25.9 °F 12.9 °F 15.6 °F 65% 29.87 in 10.0 mi SE 17.3 mph - N/A   Clear
10:55 PM 24.8 °F 11.5 °F 15.4 °F 68% 29.87 in 10.0 mi SE 17.3 mph 23.0 mph N/A   Clear
11:15 PM 24.1 °F 11.0 °F 14.9 °F 68% 29.87 in 10.0 mi SE 16.1 mph - N/A   Clear
11:35 PM 23.7 °F 9.3 °F 14.9 °F 69% 29.87 in 10.0 mi SE 19.6 mph - N/A   Clear
11:55 PM 23.0 °F 8.7 °F 14.9 °F 71% 29.86 in 10.0 mi SE 18.4 mph - N/A   Clear